| time (UTC) | temp C | wind direction | speed KPH | gust KPH | rain 1hr cm | rain 24hr cm | rain mn cm | humidity % | barometer mb |
| 20260507171916 | 11 | 40 | 1.6 | 3.2 | 0.00 | 0.00 | 0.00 | 61 | 1010.3 |
| 20260507171417 | 11 | 10 | 3.2 | 4.8 | 0.00 | 0.00 | 0.00 | 59 | 1010.2 |
| 20260507170917 | 11 | 46 | 3.2 | 4.8 | 0.00 | 0.00 | 0.00 | 58 | 1010.3 |
| 20260507170418 | 12 | 25 | 3.2 | 4.8 | 0.00 | 0.00 | 0.00 | 59 | 1010.3 |
| 20260507165917 | 12 | 355 | 3.2 | 4.8 | 0.00 | 0.00 | 0.00 | 62 | 1010.3 |
| 20260507165416 | 12 | 22 | 1.6 | 3.2 | 0.00 | 0.00 | 0.00 | 60 | 1010.4 |
| 20260507164917 | 12 | 13 | 4.8 | 4.8 | 0.00 | 0.00 | 0.00 | 59 | 1010.5 |
| 20260507164417 | 12 | 15 | 3.2 | 4.8 | 0.00 | 0.00 | 0.00 | 60 | 1010.5 |
| 20260507163917 | 12 | 341 | 3.2 | 4.8 | 0.00 | 0.00 | 0.00 | 57 | 1010.7 |
| 20260507163417 | 12 | 7 | 1.6 | 3.2 | 0.00 | 0.00 | 0.00 | 58 | 1010.7 |
| 20260507162918 | 12 | 357 | 1.6 | 3.2 | 0.00 | 0.00 | 0.00 | 57 | 1010.7 |
| 20260507162417 | 12 | 278 | 3.2 | 4.8 | 0.00 | 0.00 | 0.00 | 57 | 1010.8 |
| 20260507161916 | 12 | 256 | 4.8 | 8.0 | 0.00 | 0.00 | 0.00 | 56 | 1010.8 |
| 20260507160917 | 13 | 5 | 3.2 | 4.8 | 0.00 | 0.00 | 0.00 | 56 | 1010.9 |
| 20260507160416 | 13 | 267 | 8.0 | 9.7 | 0.00 | 0.00 | 0.00 | 56 | 1011.0 |
| 20260507155916 | 13 | 242 | 8.0 | 12.9 | 0.00 | 0.00 | 0.00 | 57 | 1011.0 |
| 20260507155417 | 13 | 250 | 9.7 | 12.9 | 0.00 | 0.00 | 0.00 | 58 | 1011.1 |
| 20260507154917 | 13 | 267 | 9.7 | 12.9 | 0.00 | 0.00 | 0.00 | 57 | 1011.0 |
| 20260507154417 | 13 | 276 | 4.8 | 9.7 | 0.00 | 0.00 | 0.00 | 55 | 1011.0 |
| 20260507153917 | 13 | 280 | 8.0 | 11.3 | 0.00 | 0.00 | 0.00 | 61 | 1011.1 |
| 20260507153418 | 13 | 271 | 4.8 | 9.7 | 0.00 | 0.00 | 0.00 | 62 | 1011.1 |
| 20260507152917 | 13 | 250 | 4.8 | 9.7 | 0.00 | 0.00 | 0.00 | 63 | 1011.2 |
| 20260507152418 | 12 | 256 | 4.8 | 9.7 | 0.00 | 0.00 | 0.00 | 61 | 1011.3 |
| 20260507151918 | 12 | 267 | 4.8 | 8.0 | 0.00 | 0.00 | 0.00 | 61 | 1011.2 |
| 20260507151418 | 12 | 335 | 3.2 | 4.8 | 0.00 | 0.00 | 0.00 | 62 | 1011.3 |
| 20260507150916 | 12 | 258 | 4.8 | 8.0 | 0.00 | 0.00 | 0.00 | 61 | 1011.4 |
| 20260507150416 | 12 | 148 | 1.6 | 4.8 | 0.00 | 0.00 | 0.00 | 64 | 1011.4 |
| 20260507145917 | 11 | 225 | 4.8 | 9.7 | 0.00 | 0.00 | 0.00 | 65 | 1011.4 |
| 20260507145417 | 11 | 297 | 1.6 | 3.2 | 0.00 | 0.00 | 0.00 | 62 | 1011.4 |
| 20260507144918 | 11 | 235 | 3.2 | 8.0 | 0.00 | 0.03 | 0.00 | 62 | 1011.4 |
| 20260507144418 | 11 | 166 | 1.6 | 1.6 | 0.00 | 0.03 | 0.00 | 63 | 1011.4 |
| 20260507143917 | 11 | 304 | 1.6 | 3.2 | 0.00 | 0.03 | 0.00 | 67 | 1011.5 |
| 20260507143417 | 11 | 237 | 3.2 | 4.8 | 0.00 | 0.03 | 0.00 | 66 | 1011.6 |
| 20260507142916 | 10 | 199 | 4.8 | 11.3 | 0.00 | 0.03 | 0.00 | 66 | 1011.5 |
| 20260507142415 | 10 | 211 | 4.8 | 8.0 | 0.00 | 0.03 | 0.00 | 66 | 1011.5 |
| 20260507141921 | 10 | 197 | 9.7 | 14.5 | 0.00 | 0.03 | 0.00 | 65 | 1011.6 |
| 20260507141417 | 10 | 220 | 8.0 | 9.7 | 0.00 | 0.03 | 0.00 | 66 | 1011.6 |
| 20260507140917 | 10 | 189 | 3.2 | 4.8 | 0.00 | 0.03 | 0.00 | 68 | 1011.7 |
| 20260507140417 | 10 | 199 | 4.8 | 4.8 | 0.00 | 0.03 | 0.00 | 67 | 1011.7 |
| 20260507135917 | 10 | 229 | 3.2 | 8.0 | 0.00 | 0.03 | 0.00 | 69 | 1011.8 |
| 20260507135417 | 10 | 230 | 3.2 | 4.8 | 0.00 | 0.03 | 0.00 | 66 | 1011.8 |
| 20260507134920 | 9 | 259 | 3.2 | 4.8 | 0.00 | 0.03 | 0.00 | 68 | 1011.9 |
| 20260507134418 | 8 | 222 | 4.8 | 8.0 | 0.00 | 0.03 | 0.00 | 67 | 1011.9 |
| 20260507133915 | 8 | 225 | 4.8 | 4.8 | 0.00 | 0.03 | 0.00 | 70 | 1011.9 |
| 20260507133416 | 8 | 230 | 8.0 | 11.3 | 0.00 | 0.03 | 0.00 | 72 | 1012.0 |
| 20260507132918 | 8 | 206 | 4.8 | 8.0 | 0.00 | 0.03 | 0.00 | 72 | 1012.0 |
| 20260507132417 | 8 | 198 | 3.2 | 12.9 | 0.00 | 0.03 | 0.00 | 70 | 1011.9 |
| 20260507131916 | 7 | 205 | 1.6 | 4.8 | 0.00 | 0.03 | 0.00 | 71 | 1011.9 |
| 20260507131418 | 7 | 124 | 3.2 | 4.8 | 0.00 | 0.03 | 0.00 | 74 | 1011.9 |
| 20260507130917 | 7 | 125 | 1.6 | 4.8 | 0.00 | 0.03 | 0.00 | 73 | 1011.9 |
| 20260507130417 | 6 | 166 | 0.0 | 3.2 | 0.00 | 0.03 | 0.00 | 75 | 1011.9 |
| 20260507125916 | 6 | 174 | 4.8 | 4.8 | 0.00 | 0.03 | 0.00 | 77 | 1011.9 |
| 20260507124916 | 6 | 182 | 0.0 | 1.6 | 0.00 | 0.03 | 0.00 | 78 | 1012.0 |
| 20260507123917 | 5 | 110 | 1.6 | 4.8 | 0.00 | 0.03 | 0.00 | 79 | 1012.1 |
| 20260507123418 | 5 | 98 | 1.6 | 4.8 | 0.00 | 0.03 | 0.00 | 82 | 1012.1 |
| 20260507122917 | 5 | 61 | 1.6 | 3.2 | 0.00 | 0.03 | 0.00 | 85 | 1012.1 |
| 20260507122418 | 5 | 245 | 1.6 | 3.2 | 0.00 | 0.03 | 0.00 | 86 | 1012.0 |
| 20260507121416 | 4 | 97 | 1.6 | 3.2 | 0.00 | 0.05 | 0.00 | 87 | 1012.0 |
| 20260507120917 | 4 | 97 | 0.0 | 1.6 | 0.00 | 0.05 | 0.00 | 88 | 1012.0 |
| 20260507120417 | 4 | 97 | 0.0 | 1.6 | 0.00 | 0.05 | 0.00 | 88 | 1012.1 |
| 20260507115918 | 4 | 97 | 1.6 | 1.6 | 0.00 | 0.05 | 0.00 | 89 | 1012.0 |
| 20260507115415 | 4 | 97 | 0.0 | 0.0 | 0.00 | 0.05 | 0.00 | 89 | 1012.1 |
| 20260507114917 | 3 | 97 | 1.6 | 4.8 | 0.00 | 0.05 | 0.00 | 90 | 1012.1 |
| 20260507114417 | 3 | 97 | 1.6 | 3.2 | 0.00 | 0.05 | 0.00 | 90 | 1012.0 |
| 20260507113918 | 3 | 14 | 0.0 | 0.0 | 0.00 | 0.05 | 0.00 | 91 | 1012.1 |
| 20260507113417 | 3 | 14 | 1.6 | 3.2 | 0.00 | 0.05 | 0.00 | 91 | 1012.3 |
| 20260507112918 | 3 | 14 | 1.6 | 3.2 | 0.00 | 0.05 | 0.00 | 92 | 1012.3 |
| 20260507112418 | 3 | 37 | 3.2 | 4.8 | 0.00 | 0.05 | 0.00 | 91 | 1012.4 |
| 20260507111917 | 3 | 18 | 3.2 | 4.8 | 0.00 | 0.05 | 0.00 | 91 | 1012.4 |
| 20260507111416 | 3 | 8 | 3.2 | 4.8 | 0.00 | 0.05 | 0.00 | 92 | 1012.4 |
| 20260507110917 | 3 | 336 | 3.2 | 4.8 | 0.00 | 0.05 | 0.00 | 92 | 1012.5 |
| 20260507110417 | 3 | 5 | 0.0 | 0.0 | 0.00 | 0.05 | 0.00 | 92 | 1012.4 |
| 20260507105917 | 3 | 5 | 0.0 | 0.0 | 0.00 | 0.05 | 0.00 | 92 | 1012.2 |
| 20260507105417 | 3 | 5 | 1.6 | 1.6 | 0.00 | 0.08 | 0.00 | 92 | 1012.1 |
| 20260507104915 | 3 | 5 | 1.6 | 1.6 | 0.00 | 0.08 | 0.00 | 92 | 1012.0 |
| 20260507104417 | 3 | 29 | 1.6 | 4.8 | 0.00 | 0.08 | 0.00 | 92 | 1011.8 |
| 20260507103916 | 4 | 157 | 0.0 | 0.0 | 0.00 | 0.08 | 0.00 | 92 | 1011.7 |
| 20260507103416 | 4 | 157 | 0.0 | 0.0 | 0.00 | 0.08 | 0.00 | 92 | 1011.6 |
| 20260507102918 | 4 | 157 | 0.0 | 0.0 | 0.00 | 0.08 | 0.00 | 92 | 1011.6 |
| 20260507102415 | 4 | 157 | 0.0 | 0.0 | 0.00 | 0.08 | 0.00 | 92 | 1011.4 |
| 20260507101918 | 4 | 157 | 0.0 | 0.0 | 0.00 | 0.08 | 0.00 | 92 | 1011.4 |
| 20260507101417 | 4 | 157 | 0.0 | 0.0 | 0.00 | 0.08 | 0.00 | 92 | 1011.4 |
| 20260507100916 | 4 | 157 | 0.0 | 0.0 | 0.00 | 0.08 | 0.00 | 92 | 1011.3 |
| 20260507100417 | 4 | 157 | 0.0 | 1.6 | 0.00 | 0.08 | 0.00 | 92 | 1011.3 |
| 20260507095917 | 4 | 157 | 1.6 | 3.2 | 0.00 | 0.08 | 0.00 | 92 | 1011.3 |
| 20260507095418 | 4 | 96 | 1.6 | 3.2 | 0.00 | 0.08 | 0.00 | 92 | 1011.2 |
| 20260507094917 | 4 | 9 | 1.6 | 4.8 | 0.00 | 0.10 | 0.00 | 93 | 1011.3 |
| 20260507094416 | 4 | 9 | 0.0 | 4.8 | 0.00 | 0.10 | 0.00 | 92 | 1011.5 |
| 20260507093918 | 3 | 9 | 0.0 | 0.0 | 0.00 | 0.10 | 0.00 | 92 | 1011.4 |
| 20260507093417 | 3 | 9 | 0.0 | 0.0 | 0.00 | 0.10 | 0.00 | 92 | 1011.4 |
| 20260507092916 | 3 | 9 | 0.0 | 0.0 | 0.00 | 0.10 | 0.00 | 93 | 1011.5 |
| 20260507092418 | 3 | 9 | 0.0 | 0.0 | 0.00 | 0.10 | 0.00 | 92 | 1011.5 |
| 20260507091917 | 3 | 9 | 0.0 | 1.6 | 0.00 | 0.10 | 0.00 | 92 | 1011.5 |
| 20260507091416 | 3 | 9 | 0.0 | 1.6 | 0.00 | 0.13 | 0.00 | 92 | 1011.5 |
| 20260507090918 | 3 | 9 | 0.0 | 0.0 | 0.00 | 0.13 | 0.00 | 92 | 1011.5 |
| 20260507090417 | 3 | 9 | 0.0 | 0.0 | 0.00 | 0.13 | 0.00 | 92 | 1011.4 |
| 20260507085916 | 3 | 9 | 0.0 | 0.0 | 0.00 | 0.13 | 0.00 | 91 | 1011.4 |
| 20260507085418 | 3 | 9 | 1.6 | 1.6 | 0.00 | 0.13 | 0.00 | 91 | 1011.4 |
| 20260507084917 | 3 | 9 | 1.6 | 1.6 | 0.00 | 0.13 | 0.00 | 91 | 1011.3 |
| 20260507084417 | 3 | 9 | 0.0 | 1.6 | 0.00 | 0.15 | 0.00 | 91 | 1011.3 |
| 20260507083918 | 3 | 11 | 3.2 | 4.8 | 0.00 | 0.15 | 0.00 | 92 | 1011.3 |
| 20260507083416 | 3 | 215 | 0.0 | 0.0 | 0.00 | 0.15 | 0.00 | 92 | 1011.3 |
| 20260507082916 | 3 | 215 | 0.0 | 0.0 | 0.00 | 0.15 | 0.00 | 92 | 1011.4 |
| 20260507082416 | 3 | 215 | 0.0 | 0.0 | 0.00 | 0.15 | 0.00 | 92 | 1011.5 |
| 20260507081918 | 3 | 215 | 0.0 | 0.0 | 0.00 | 0.15 | 0.00 | 91 | 1011.4 |
| 20260507081417 | 3 | 215 | 0.0 | 0.0 | 0.00 | 0.15 | 0.00 | 91 | 1011.5 |
| 20260507080918 | 3 | 215 | 0.0 | 0.0 | 0.00 | 0.18 | 0.00 | 91 | 1011.5 |
| 20260507080417 | 3 | 215 | 0.0 | 0.0 | 0.00 | 0.18 | 0.00 | 91 | 1011.5 |
| 20260507075916 | 4 | 215 | 0.0 | 0.0 | 0.00 | 0.18 | 0.00 | 91 | 1011.4 |
| 20260507075416 | 4 | 215 | 0.0 | 0.0 | 0.00 | 0.18 | 0.00 | 91 | 1011.4 |
| 20260507074918 | 4 | 215 | 0.0 | 0.0 | 0.00 | 0.18 | 0.00 | 91 | 1011.3 |
| 20260507074417 | 4 | 215 | 0.0 | 0.0 | 0.00 | 0.18 | 0.00 | 91 | 1011.3 |
| 20260507073916 | 4 | 215 | 0.0 | 0.0 | 0.00 | 0.20 | 0.00 | 91 | 1011.3 |
| 20260507073416 | 4 | 215 | 0.0 | 0.0 | 0.00 | 0.20 | 0.00 | 91 | 1011.3 |
| 20260507072917 | 5 | 215 | 0.0 | 0.0 | 0.00 | 0.20 | 0.00 | 91 | 1011.3 |
| 20260507072416 | 5 | 215 | 0.0 | 0.0 | 0.00 | 0.20 | 0.00 | 91 | 1011.3 |
| 20260507071917 | 5 | 215 | 0.0 | 0.0 | 0.00 | 0.20 | 0.00 | 92 | 1011.3 |
| 20260507071417 | 5 | 215 | 0.0 | 0.0 | 0.00 | 0.20 | 0.00 | 92 | 1011.3 |
| 20260507070918 | 5 | 215 | 0.0 | 0.0 | 0.00 | 0.20 | 0.00 | 91 | 1011.4 |
| 20260507070417 | 5 | 215 | 0.0 | 0.0 | 0.00 | 0.23 | 0.00 | 91 | 1011.4 |
| 20260507065917 | 5 | 215 | 0.0 | 0.0 | 0.00 | 0.23 | 0.00 | 91 | 1011.3 |
| 20260507065419 | 5 | 215 | 0.0 | 0.0 | 0.00 | 0.23 | 0.00 | 91 | 1011.3 |
| 20260507064418 | 5 | 215 | 0.0 | 0.0 | 0.00 | 0.23 | 0.00 | 91 | 1011.3 |
| 20260507063917 | 5 | 215 | 0.0 | 0.0 | 0.00 | 0.23 | 0.00 | 91 | 1011.3 |
| 20260507063416 | 5 | 215 | 0.0 | 0.0 | 0.00 | 0.25 | 0.00 | 91 | 1011.4 |
| 20260507062918 | 5 | 215 | 0.0 | 0.0 | 0.00 | 0.25 | 0.00 | 91 | 1011.5 |
| 20260507062417 | 5 | 215 | 0.0 | 0.0 | 0.00 | 0.25 | 0.00 | 90 | 1011.6 |
| 20260507061917 | 5 | 215 | 0.0 | 0.0 | 0.00 | 0.25 | 0.00 | 91 | 1011.7 |
| 20260507061416 | 5 | 215 | 0.0 | 0.0 | 0.00 | 0.25 | 0.00 | 91 | 1011.7 |
| 20260507060918 | 5 | 223 | 1.6 | 1.6 | 0.00 | 0.25 | 0.00 | 91 | 1011.8 |
| 20260507060417 | 5 | 223 | 1.6 | 3.2 | 0.00 | 0.25 | 0.00 | 91 | 1011.8 |
| 20260507055917 | 5 | 223 | 0.0 | 4.8 | 0.00 | 0.25 | 0.00 | 91 | 1012.0 |
| 20260507055417 | 5 | 222 | 0.0 | 0.0 | 0.00 | 0.28 | 0.00 | 90 | 1011.9 |
| 20260507054917 | 5 | 222 | 0.0 | 0.0 | 0.00 | 0.28 | 0.00 | 90 | 1011.8 |
| 20260507054418 | 5 | 222 | 0.0 | 0.0 | 0.00 | 0.28 | 0.00 | 90 | 1011.8 |
| 20260507053916 | 5 | 222 | 0.0 | 0.0 | 0.00 | 0.28 | 0.00 | 91 | 1011.9 |
| 20260507053418 | 6 | 222 | 0.0 | 0.0 | 0.00 | 0.28 | 0.00 | 90 | 1012.0 |
| 20260507052917 | 6 | 222 | 0.0 | 0.0 | 0.00 | 0.28 | 0.00 | 90 | 1012.0 |
| 20260507052415 | 6 | 222 | 0.0 | 0.0 | 0.00 | 0.28 | 0.00 | 90 | 1012.0 |
| 20260507051917 | 6 | 222 | 0.0 | 0.0 | 0.00 | 0.28 | 0.00 | 90 | 1012.0 |
| 20260507051416 | 6 | 222 | 0.0 | 0.0 | 0.00 | 0.30 | 0.00 | 90 | 1012.0 |
| 20260507050916 | 6 | 222 | 0.0 | 1.6 | 0.00 | 0.30 | 0.00 | 90 | 1012.0 |
| 20260507050417 | 6 | 222 | 0.0 | 1.6 | 0.00 | 0.30 | 0.00 | 90 | 1012.1 |
| 20260507045916 | 6 | 222 | 0.0 | 0.0 | 0.00 | 0.33 | 0.00 | 90 | 1012.1 |
| 20260507045417 | 6 | 222 | 1.6 | 1.6 | 0.00 | 0.33 | 0.00 | 90 | 1012.1 |
| 20260507044916 | 6 | 252 | 1.6 | 3.2 | 0.00 | 0.33 | 0.00 | 90 | 1012.2 |
| 20260507044418 | 6 | 247 | 3.2 | 4.8 | 0.00 | 0.36 | 0.00 | 90 | 1012.3 |
| 20260507043918 | 6 | 249 | 3.2 | 4.8 | 0.00 | 0.36 | 0.00 | 90 | 1012.3 |
| 20260507043417 | 6 | 245 | 3.2 | 8.0 | 0.00 | 0.36 | 0.00 | 90 | 1012.2 |
| 20260507042918 | 6 | 255 | 4.8 | 8.0 | 0.00 | 0.36 | 0.00 | 90 | 1012.3 |
| 20260507042417 | 6 | 244 | 8.0 | 8.0 | 0.00 | 0.38 | 0.00 | 90 | 1012.3 |
| 20260507041917 | 6 | 244 | 4.8 | 9.7 | 0.00 | 0.38 | 0.00 | 90 | 1012.3 |
| 20260507041416 | 6 | 240 | 4.8 | 8.0 | 0.00 | 0.38 | 0.00 | 90 | 1012.2 |
| 20260507040916 | 6 | 245 | 4.8 | 8.0 | 0.00 | 0.38 | 0.00 | 90 | 1012.3 |
| 20260507040417 | 6 | 249 | 3.2 | 3.2 | 0.00 | 0.38 | 0.00 | 90 | 1012.2 |
| 20260507035916 | 6 | 255 | 3.2 | 4.8 | 0.00 | 0.38 | 0.38 | 90 | 1012.1 |
| 20260507035417 | 6 | 239 | 1.6 | 3.2 | 0.00 | 0.38 | 0.38 | 89 | 1012.0 |
| 20260507034918 | 6 | 242 | 4.8 | 4.8 | 0.00 | 0.38 | 0.38 | 89 | 1012.1 |
| 20260507034417 | 6 | 244 | 3.2 | 8.0 | 0.00 | 0.38 | 0.38 | 89 | 1012.2 |
| 20260507033920 | 6 | 238 | 1.6 | 4.8 | 0.00 | 0.38 | 0.38 | 89 | 1012.2 |
| 20260507033416 | 6 | 247 | 3.2 | 4.8 | 0.00 | 0.38 | 0.38 | 89 | 1012.2 |
| 20260507032917 | 6 | 231 | 1.6 | 4.8 | 0.00 | 0.38 | 0.38 | 89 | 1012.2 |
| 20260507032417 | 6 | 241 | 1.6 | 3.2 | 0.00 | 0.38 | 0.38 | 89 | 1012.2 |
| 20260507031917 | 6 | 232 | 3.2 | 4.8 | 0.00 | 0.38 | 0.38 | 89 | 1012.2 |
| 20260507031418 | 6 | 219 | 3.2 | 4.8 | 0.00 | 0.38 | 0.38 | 89 | 1012.2 |
| 20260507030917 | 6 | 233 | 1.6 | 4.8 | 0.00 | 0.38 | 0.38 | 89 | 1012.1 |
| 20260507030417 | 6 | 236 | 1.6 | 3.2 | 0.00 | 0.38 | 0.38 | 89 | 1012.2 |
| 20260507025916 | 6 | 226 | 3.2 | 4.8 | 0.00 | 0.38 | 0.38 | 89 | 1012.2 |
| 20260507025416 | 6 | 225 | 1.6 | 4.8 | 0.00 | 0.38 | 0.38 | 89 | 1012.2 |
| 20260507024917 | 6 | 231 | 3.2 | 4.8 | 0.00 | 0.41 | 0.38 | 89 | 1012.2 |
| 20260507024417 | 6 | 241 | 1.6 | 3.2 | 0.00 | 0.41 | 0.38 | 89 | 1012.0 |
| 20260507023917 | 6 | 233 | 3.2 | 4.8 | 0.00 | 0.41 | 0.38 | 89 | 1011.9 |
| 20260507023417 | 6 | 226 | 3.2 | 4.8 | 0.00 | 0.41 | 0.38 | 89 | 1012.0 |
| 20260507022918 | 6 | 184 | 0.0 | 0.0 | 0.00 | 0.41 | 0.38 | 89 | 1012.0 |
| 20260507022417 | 6 | 184 | 1.6 | 3.2 | 0.00 | 0.43 | 0.38 | 88 | 1011.9 |
| 20260507021918 | 6 | 230 | 0.0 | 1.6 | 0.00 | 0.43 | 0.38 | 88 | 1012.0 |
| 20260507021417 | 6 | 230 | 0.0 | 0.0 | 0.00 | 0.43 | 0.38 | 88 | 1012.0 |
| 20260507020916 | 6 | 230 | 1.6 | 1.6 | 0.00 | 0.43 | 0.38 | 88 | 1012.0 |
| 20260507020417 | 6 | 235 | 1.6 | 1.6 | 0.00 | 0.46 | 0.38 | 88 | 1012.1 |
| 20260507015918 | 6 | 241 | 1.6 | 1.6 | 0.00 | 0.46 | 0.38 | 88 | 1012.3 |
| 20260507015418 | 6 | 241 | 1.6 | 3.2 | 0.00 | 0.46 | 0.38 | 88 | 1012.4 |
| 20260507014917 | 6 | 235 | 1.6 | 4.8 | 0.00 | 0.46 | 0.38 | 88 | 1012.5 |
| 20260507014417 | 6 | 232 | 3.2 | 4.8 | 0.00 | 0.46 | 0.38 | 88 | 1012.6 |
| 20260507013916 | 6 | 257 | 3.2 | 4.8 | 0.00 | 0.46 | 0.38 | 88 | 1012.6 |
| 20260507013418 | 6 | 234 | 0.0 | 0.0 | 0.00 | 0.48 | 0.38 | 88 | 1012.5 |
| 20260507012918 | 6 | 234 | 0.0 | 0.0 | 0.00 | 0.48 | 0.38 | 88 | 1012.4 |
| 20260507012416 | 6 | 234 | 1.6 | 3.2 | 0.00 | 0.48 | 0.38 | 88 | 1012.4 |
| 20260507011917 | 6 | 239 | 0.0 | 3.2 | 0.00 | 0.48 | 0.38 | 88 | 1012.3 |
| 20260507011418 | 6 | 244 | 3.2 | 4.8 | 0.00 | 0.48 | 0.38 | 88 | 1012.2 |
| 20260507010917 | 6 | 239 | 3.2 | 4.8 | 0.00 | 0.48 | 0.38 | 88 | 1012.2 |
| 20260507010416 | 6 | 24 | 0.0 | 0.0 | 0.00 | 0.51 | 0.38 | 88 | 1012.2 |
| 20260507005917 | 6 | 24 | 0.0 | 0.0 | 0.00 | 0.51 | 0.38 | 87 | 1012.0 |
| 20260507005418 | 6 | 24 | 0.0 | 0.0 | 0.00 | 0.51 | 0.38 | 87 | 1012.0 |
| 20260507004917 | 6 | 24 | 0.0 | 0.0 | 0.00 | 0.53 | 0.38 | 87 | 1011.9 |
| 20260507004417 | 6 | 24 | 0.0 | 0.0 | 0.00 | 0.53 | 0.38 | 87 | 1011.9 |
| 20260507003918 | 6 | 24 | 0.0 | 0.0 | 0.00 | 0.53 | 0.38 | 87 | 1011.8 |
| 20260507003416 | 6 | 24 | 0.0 | 0.0 | 0.00 | 0.56 | 0.38 | 87 | 1011.8 |
| 20260507002919 | 6 | 24 | 0.0 | 0.0 | 0.00 | 0.56 | 0.38 | 87 | 1011.7 |
| 20260507002415 | 6 | 24 | 0.0 | 0.0 | 0.00 | 0.58 | 0.38 | 87 | 1011.6 |
| 20260507001918 | 6 | 24 | 0.0 | 1.6 | 0.00 | 0.58 | 0.38 | 86 | 1011.4 |
| 20260507001415 | 6 | 24 | 0.0 | 0.0 | 0.00 | 0.61 | 0.38 | 86 | 1011.5 |
| 20260507000916 | 6 | 24 | 0.0 | 0.0 | 0.00 | 0.64 | 0.38 | 86 | 1011.3 |
| 20260507000416 | 6 | 24 | 0.0 | 0.0 | 0.00 | 0.66 | 0.38 | 86 | 1011.3 |
| 20260506235916 | 6 | 24 | 0.0 | 0.0 | 0.00 | 0.69 | 0.38 | 86 | 1011.3 |
| 20260506235415 | 6 | 24 | 0.0 | 0.0 | 0.00 | 0.71 | 0.38 | 86 | 1011.3 |
| 20260506234916 | 6 | 24 | 0.0 | 1.6 | 0.00 | 0.74 | 0.38 | 85 | 1011.3 |
| 20260506234417 | 6 | 24 | 1.6 | 1.6 | 0.00 | 0.76 | 0.38 | 86 | 1011.2 |
| 20260506233917 | 6 | 353 | 0.0 | 0.0 | 0.00 | 0.79 | 0.38 | 85 | 1011.2 |
| 20260506233415 | 6 | 20 | 1.6 | 3.2 | 0.00 | 0.84 | 0.38 | 85 | 1011.2 |
| 20260506232916 | 7 | 105 | 0.0 | 1.6 | 0.00 | 0.86 | 0.38 | 85 | 1011.2 |
| 20260506232415 | 7 | 105 | 0.0 | 3.2 | 0.00 | 0.86 | 0.38 | 85 | 1011.1 |
| 20260506231916 | 7 | 6 | 0.0 | 1.6 | 0.00 | 0.89 | 0.38 | 86 | 1011.2 |
| 20260506231415 | 7 | 14 | 3.2 | 4.8 | 0.00 | 0.91 | 0.38 | 87 | 1011.1 |
| 20260506230916 | 7 | 8 | 0.0 | 1.6 | 0.00 | 0.91 | 0.38 | 87 | 1011.1 |
| 20260506230415 | 7 | 26 | 3.2 | 4.8 | 0.00 | 0.94 | 0.38 | 87 | 1011.2 |
| 20260506225917 | 6 | 3 | 3.2 | 4.8 | 0.00 | 0.94 | 0.38 | 87 | 1011.1 |
| 20260506225418 | 6 | 354 | 0.0 | 0.0 | 0.00 | 0.97 | 0.38 | 88 | 1011.0 |
| 20260506224915 | 6 | 354 | 0.0 | 1.6 | 0.00 | 0.97 | 0.38 | 88 | 1010.9 |
| 20260506224418 | 6 | 354 | 0.0 | 3.2 | 0.00 | 0.99 | 0.38 | 89 | 1010.9 |
| 20260506223916 | 6 | 11 | 1.6 | 3.2 | 0.00 | 0.99 | 0.38 | 89 | 1010.8 |
| 20260506223416 | 6 | 20 | 1.6 | 4.8 | 0.00 | 1.02 | 0.38 | 89 | 1010.8 |
| 20260506222915 | 6 | 6 | 3.2 | 4.8 | 0.00 | 1.04 | 0.38 | 89 | 1010.8 |
| 20260506222420 | 6 | 349 | 3.2 | 4.8 | 0.00 | 1.04 | 0.38 | 89 | |
| 20260506222416 | 6 | 349 | 3.2 | 4.8 | 0.00 | 1.04 | 0.38 | 89 | 1010.6 |
| 20260506221915 | 6 | 12 | 3.2 | 4.8 | 0.00 | 1.07 | 0.38 | 90 | 1010.5 |
| 20260506221416 | 6 | 356 | 3.2 | 4.8 | 0.00 | 1.07 | 0.38 | 90 | 1010.5 |
| 20260506220916 | 6 | 14 | 3.2 | 8.0 | 0.00 | 1.09 | 0.38 | 90 | 1010.3 |
| 20260506220416 | 6 | 8 | 3.2 | 4.8 | 0.00 | 1.14 | 0.38 | 90 | 1010.3 |
| 20260506220130 | 6 | 23 | 1.6 | 4.8 | 0.00 | 1.17 | 0.38 | 90 | 1010.3 |
| 20260506215917 | 6 | 23 | 1.6 | 4.8 | 0.00 | 1.17 | 0.38 | 90 | 1010.3 |
| 20260506215415 | 6 | 12 | 3.2 | 4.8 | 0.00 | 1.19 | 0.38 | 90 | 1010.3 |
| 20260506214917 | 6 | 1 | 3.2 | 14.5 | 0.00 | 1.22 | 0.38 | 90 | 1010.3 |
| 20260506214416 | 6 | 6 | 4.8 | 8.0 | 0.00 | 1.24 | 0.38 | 90 | 1010.2 |
| 20260506213915 | 6 | 24 | 4.8 | 8.0 | 0.00 | 1.27 | 0.38 | 90 | 1010.3 |
| 20260506213416 | 6 | 24 | 4.8 | 4.8 | 0.00 | 1.30 | 0.38 | 90 | 1010.3 |
| 20260506212916 | 6 | 13 | 4.8 | 4.8 | 0.00 | 1.32 | 0.38 | 90 | 1010.2 |
| 20260506212416 | 6 | 21 | 4.8 | 4.8 | 0.00 | 1.35 | 0.38 | 90 | 1010.2 |
| 20260506211915 | 6 | 18 | 3.2 | 12.9 | 0.00 | 1.37 | 0.38 | 90 | 1010.1 |
| 20260506211416 | 6 | 22 | 3.2 | 8.0 | 0.00 | 1.37 | 0.38 | 91 | 1010.0 |
| 20260506210915 | 6 | 336 | 4.8 | 4.8 | 0.00 | 1.40 | 0.38 | 91 | 1010.0 |
| 20260506210417 | 6 | 2 | 3.2 | 4.8 | 0.00 | 1.42 | 0.38 | 90 | 1009.9 |
| 20260506205915 | 6 | 342 | 4.8 | 9.7 | 0.00 | 1.45 | 0.38 | 90 | 1009.8 |
| 20260506205417 | 6 | 351 | 4.8 | 8.0 | 0.00 | 1.52 | 0.38 | 90 | 1009.8 |
| 20260506204916 | 6 | 337 | 8.0 | 12.9 | 0.00 | 1.57 | 0.38 | 90 | 1009.9 |
| 20260506204417 | 6 | 3 | 8.0 | 11.3 | 0.00 | 1.60 | 0.38 | 90 | 1009.8 |
| 20260506203916 | 6 | 347 | 8.0 | 9.7 | 0.00 | 1.63 | 0.38 | 89 | 1009.8 |
| 20260506203417 | 6 | 326 | 11.3 | 20.9 | 0.00 | 1.65 | 0.38 | 89 | 1009.7 |
| 20260506202916 | 6 | 329 | 11.3 | 16.1 | 0.00 | 1.68 | 0.38 | 89 | 1009.8 |
| 20260506202417 | 6 | 315 | 14.5 | 19.3 | 0.00 | 1.68 | 0.38 | 88 | 1009.8 |
| 20260506201916 | 6 | 338 | 12.9 | 19.3 | 0.00 | 1.68 | 0.38 | 88 | 1009.7 |
| 20260506201415 | 6 | 317 | 14.5 | 20.9 | 0.00 | 1.68 | 0.38 | 87 | 1009.5 |
| 20260506200916 | 7 | 327 | 11.3 | 14.5 | 0.00 | 1.68 | 0.38 | 85 | 1009.4 |
| 20260506200415 | 7 | 319 | 14.5 | 19.3 | 0.00 | 1.68 | 0.38 | 84 | 1009.4 |
| 20260506195915 | 8 | 311 | 14.5 | 22.5 | 0.00 | 1.68 | 0.38 | 82 | 1009.3 |
| 20260506195415 | 9 | 311 | 16.1 | 22.5 | 0.00 | 1.68 | 0.38 | 80 | 1009.4 |
| 20260506194917 | 10 | 305 | 16.1 | 24.1 | 0.00 | 1.68 | 0.38 | 80 | 1009.2 |
| 20260506194416 | 10 | 249 | 14.5 | 33.8 | 0.00 | 1.68 | 0.38 | 80 | 1008.8 |
| 20260506193917 | 10 | 239 | 12.9 | 22.5 | 0.00 | 1.68 | 0.38 | 80 | 1008.6 |
| 20260506193416 | 11 | 244 | 9.7 | 20.9 | 0.00 | 1.68 | 0.38 | 80 | 1008.5 |
| 20260506192917 | 11 | 226 | 11.3 | 19.3 | 0.00 | 1.68 | 0.38 | 80 | 1008.5 |
| 20260506192417 | 11 | 249 | 8.0 | 14.5 | 0.00 | 1.68 | 0.38 | 83 | 1008.6 |
| 20260506191916 | 11 | 221 | 3.2 | 8.0 | 0.00 | 1.68 | 0.38 | 83 | 1008.5 |
| 20260506191416 | 11 | 210 | 8.0 | 11.3 | 0.00 | 1.68 | 0.38 | 84 | 1008.5 |
| 20260506190918 | 10 | 223 | 8.0 | 12.9 | 0.00 | 1.68 | 0.38 | 85 | 1008.5 |
| 20260506190420 | 10 | 249 | 11.3 | 19.3 | 0.00 | 1.68 | 0.38 | 85 | 1008.6 |
| 20260506185918 | 10 | 242 | 9.7 | 14.5 | 0.00 | 1.68 | 0.38 | 86 | 1008.6 |
| 20260506185417 | 10 | 264 | 4.8 | 4.8 | 0.00 | 1.68 | 0.38 | 87 | 1008.6 |
| 20260506184918 | 10 | 232 | 3.2 | 4.8 | 0.00 | 1.68 | 0.38 | 87 | 1008.5 |
| 20260506184417 | 10 | 213 | 1.6 | 1.6 | 0.00 | 1.68 | 0.38 | 86 | 1008.4 |
| 20260506183915 | 10 | 213 | 1.6 | 3.2 | 0.00 | 1.68 | 0.38 | 86 | 1008.6 |
| 20260506183417 | 10 | 224 | 1.6 | 4.8 | 0.00 | 1.68 | 0.38 | 86 | 1008.5 |
| 20260506182917 | 10 | 251 | 1.6 | 4.8 | 0.00 | 1.68 | 0.38 | 85 | 1008.5 |
| 20260506182418 | 10 | 251 | 0.0 | 1.6 | 0.00 | 1.68 | 0.38 | 85 | 1008.4 |
| 20260506181917 | 10 | 251 | 1.6 | 1.6 | 0.00 | 1.68 | 0.38 | 86 | 1008.4 |
| 20260506181416 | 10 | 251 | 0.0 | 0.0 | 0.00 | 1.68 | 0.38 | 85 | 1008.4 |
| 20260506180917 | 10 | 251 | 0.0 | 0.0 | 0.00 | 1.68 | 0.38 | 85 | 1008.5 |
| 20260506180417 | 10 | 251 | 3.2 | 4.8 | 0.00 | 1.68 | 0.38 | 85 | 1008.5 |
| 20260506175916 | 10 | 251 | 1.6 | 3.2 | 0.00 | 1.68 | 0.38 | 85 | 1008.4 |
| 20260506175417 | 10 | 244 | 4.8 | 8.0 | 0.00 | 1.68 | 0.38 | 87 | 1008.6 |
| 20260506174918 | 10 | 255 | 0.0 | 1.6 | 0.00 | 1.68 | 0.38 | 87 | 1008.4 |
| 20260506174417 | 10 | 254 | 3.2 | 4.8 | 0.00 | 1.68 | 0.38 | 87 | 1008.6 |
| 20260506173916 | 10 | 299 | 0.0 | 1.6 | 0.00 | 1.68 | 0.38 | 86 | 1008.3 |
| 20260506173418 | 10 | 299 | 0.0 | 1.6 | 0.00 | 1.68 | 0.38 | 86 | 1008.5 |
| 20260506172918 | 10 | 299 | 0.0 | 1.6 | 0.00 | 1.68 | 0.38 | 87 | 1008.7 |
| 20260506172417 | 10 | 299 | 0.0 | 0.0 | 0.00 | 1.68 | 0.38 | 88 | 1008.6 |